| time (UTC) | temp C | wind direction | speed KPH | gust KPH | rain 1hr cm | rain 24hr cm | rain mn cm | humidity % | barometer mb |
| 20260506015316 | 6 | 178 | 0.0 | 0.0 | 0.00 | 0.08 | 0.08 | 82 | 1008.5 |
| 20260506014812 | 6 | 172 | 0.0 | 0.0 | 0.00 | 0.08 | 0.08 | 83 | 1008.5 |
| 20260506014309 | 6 | 176 | 0.0 | 0.0 | 0.00 | 0.08 | 0.08 | 84 | 1008.7 |
| 20260506013806 | 6 | 182 | 0.0 | 0.0 | 0.00 | 0.08 | 0.08 | 83 | 1008.6 |
| 20260506013303 | 6 | 182 | 0.0 | 0.0 | 0.00 | 0.08 | 0.08 | 83 | 1008.8 |
| 20260506012800 | 6 | 178 | 0.0 | 0.0 | 0.00 | 0.08 | 0.08 | 82 | 1008.7 |
| 20260506012257 | 6 | 177 | 0.0 | 0.0 | 0.00 | 0.08 | 0.08 | 82 | 1008.7 |
| 20260506011754 | 6 | 171 | 0.0 | 0.0 | 0.00 | 0.08 | 0.08 | 83 | 1008.4 |
| 20260506011250 | 6 | 171 | 0.0 | 0.0 | 0.00 | 0.08 | 0.08 | 83 | 1008.5 |
| 20260506010748 | 7 | 177 | 0.0 | 0.0 | 0.00 | 0.08 | 0.08 | 83 | 1008.5 |
| 20260506010245 | 7 | 183 | 0.0 | 0.0 | 0.00 | 0.08 | 0.08 | 83 | 1008.1 |
| 20260506005743 | 7 | 184 | 0.0 | 0.0 | 0.00 | 0.08 | 0.08 | 81 | 1008.1 |
| 20260506005239 | 7 | 184 | 0.0 | 0.0 | 0.00 | 0.08 | 0.08 | 80 | 1008.1 |
| 20260506004735 | 7 | 182 | 0.0 | 0.0 | 0.00 | 0.08 | 0.08 | 77 | 1007.9 |
| 20260506004233 | 7 | 178 | 0.0 | 0.0 | 0.00 | 0.08 | 0.08 | 76 | 1008.0 |
| 20260506003728 | 7 | 178 | 0.0 | 0.0 | 0.00 | 0.08 | 0.08 | 76 | 1007.7 |
| 20260506003225 | 7 | 167 | 0.0 | 0.0 | 0.00 | 0.08 | 0.08 | 76 | 1007.8 |
| 20260506002721 | 7 | 177 | 0.0 | 0.0 | 0.00 | 0.08 | 0.08 | 77 | 1007.8 |
| 20260506002218 | 7 | 183 | 0.0 | 0.0 | 0.00 | 0.08 | 0.08 | 77 | 1007.9 |
| 20260506001714 | 8 | 182 | 0.0 | 0.0 | 0.00 | 0.08 | 0.08 | 77 | 1007.6 |
| 20260506001211 | 8 | 192 | 0.0 | 0.0 | 0.00 | 0.08 | 0.08 | 76 | 1007.6 |
| 20260506000708 | 8 | 202 | 0.0 | 0.0 | 0.00 | 0.08 | 0.08 | 76 | 1007.7 |
| 20260506000206 | 8 | 205 | 0.0 | 0.0 | 0.00 | 0.08 | 0.08 | 74 | 1007.8 |
| 20260505235703 | 8 | 188 | 0.0 | 0.0 | 0.00 | 0.08 | 0.08 | 73 | 1007.8 |
| 20260505235201 | 8 | 180 | 0.0 | 0.0 | 0.00 | 0.08 | 0.08 | 72 | 1007.8 |
| 20260505234657 | 8 | 186 | 0.0 | 0.0 | 0.00 | 0.08 | 0.08 | 71 | 1008.0 |
| 20260505234154 | 8 | 188 | 0.0 | 0.0 | 0.00 | 0.08 | 0.08 | 72 | 1007.7 |
| 20260505233651 | 8 | 193 | 0.0 | 0.0 | 0.00 | 0.08 | 0.08 | 69 | 1007.6 |
| 20260505233149 | 8 | 195 | 0.0 | 0.0 | 0.00 | 0.08 | 0.08 | 70 | 1007.8 |
| 20260505232646 | 8 | 203 | 0.0 | 0.0 | 0.00 | 0.08 | 0.08 | 69 | 1007.6 |
| 20260505232144 | 8 | 189 | 0.0 | 0.0 | 0.00 | 0.08 | 0.08 | 70 | 1007.9 |
| 20260505231640 | 8 | 192 | 0.0 | 0.0 | 0.00 | 0.08 | 0.08 | 69 | 1007.8 |
| 20260505231139 | 8 | 201 | 0.0 | 0.0 | 0.00 | 0.08 | 0.08 | 67 | 1007.8 |
| 20260505230637 | 8 | 198 | 0.0 | 0.0 | 0.00 | 0.08 | 0.08 | 69 | 1007.6 |
| 20260505230133 | 8 | 196 | 0.0 | 0.0 | 0.00 | 0.08 | 0.08 | 68 | 1007.6 |
| 20260505225629 | 8 | 203 | 0.0 | 0.0 | 0.00 | 0.08 | 0.08 | 69 | 1007.9 |
| 20260505225125 | 8 | 204 | 0.0 | 0.0 | 0.00 | 0.08 | 0.08 | 67 | 1007.7 |
| 20260505224622 | 8 | 194 | 0.0 | 0.0 | 0.00 | 0.08 | 0.08 | 69 | 1007.8 |
| 20260505224120 | 8 | 195 | 0.0 | 0.0 | 0.00 | 0.08 | 0.08 | 68 | 1007.5 |
| 20260505223617 | 8 | 201 | 0.0 | 0.0 | 0.00 | 0.08 | 0.08 | 68 | 1007.7 |
| 20260505223113 | 8 | 206 | 0.0 | 0.0 | 0.00 | 0.08 | 0.08 | 68 | 1007.9 |
| 20260505222609 | 8 | 226 | 0.0 | 0.0 | 0.00 | 0.08 | 0.08 | 70 | 1008.0 |
| 20260505222105 | 8 | 192 | 0.0 | 0.0 | 0.00 | 0.08 | 0.08 | 70 | 1007.9 |
| 20260505221603 | 8 | 212 | 0.0 | 0.0 | 0.00 | 0.08 | 0.08 | 71 | 1008.0 |
| 20260505221059 | 8 | 190 | 0.0 | 0.0 | 0.00 | 0.08 | 0.08 | 71 | 1008.2 |
| 20260505220556 | 8 | 209 | 0.0 | 0.0 | 0.00 | 0.08 | 0.08 | 68 | 1008.2 |
| 20260505220054 | 8 | 226 | 0.0 | 0.0 | 0.00 | 0.08 | 0.08 | 67 | 1008.0 |
| 20260505215552 | 8 | 211 | 0.0 | 0.0 | 0.00 | 0.08 | 0.08 | 69 | 1007.7 |
| 20260505215049 | 8 | 202 | 0.0 | 0.0 | 0.00 | 0.08 | 0.08 | 71 | 1007.9 |
| 20260505214548 | 8 | 213 | 0.0 | 0.0 | 0.00 | 0.08 | 0.08 | 71 | 1007.6 |
| 20260505214044 | 8 | 231 | 0.0 | 0.0 | 0.00 | 0.08 | 0.08 | 70 | 1007.9 |
| 20260505213542 | 8 | 208 | 0.0 | 0.0 | 0.00 | 0.08 | 0.08 | 70 | 1007.8 |
| 20260505213038 | 8 | 212 | 0.0 | 0.0 | 0.00 | 0.08 | 0.08 | 70 | 1008.0 |
| 20260505212535 | 8 | 238 | 0.0 | 0.0 | 0.00 | 0.08 | 0.08 | 68 | 1008.1 |
| 20260505212032 | 8 | 211 | 0.0 | 0.0 | 0.00 | 0.08 | 0.08 | 71 | 1007.9 |
| 20260505211529 | 8 | 215 | 0.0 | 0.0 | 0.00 | 0.08 | 0.08 | 71 | 1008.1 |
| 20260505211025 | 8 | 217 | 0.0 | 0.0 | 0.00 | 0.08 | 0.08 | 70 | 1007.8 |
| 20260505210522 | 8 | 206 | 0.0 | 0.0 | 0.00 | 0.08 | 0.08 | 71 | 1007.8 |
| 20260505210020 | 8 | 257 | 0.0 | 0.0 | 0.00 | 0.08 | 0.08 | 71 | 1007.7 |
| 20260505205518 | 7 | 184 | 0.0 | 0.0 | 0.00 | 0.08 | 0.08 | 72 | 1007.8 |
| 20260505205014 | 7 | 279 | 3.2 | 4.8 | 0.00 | 0.08 | 0.08 | 69 | 1008.0 |
| 20260505204512 | 8 | 226 | 1.6 | 3.2 | 0.00 | 0.08 | 0.08 | 72 | 1008.0 |
| 20260505204009 | 8 | 206 | 0.0 | 0.0 | 0.00 | 0.08 | 0.08 | 72 | 1007.9 |
| 20260505203506 | 7 | 255 | 0.0 | 1.6 | 0.00 | 0.08 | 0.08 | 72 | 1008.0 |
| 20260505203002 | 7 | 226 | 1.6 | 1.6 | 0.00 | 0.08 | 0.08 | 70 | 1008.0 |
| 20260505202459 | 7 | 209 | 0.0 | 0.0 | 0.00 | 0.08 | 0.08 | 73 | 1007.8 |
| 20260505201954 | 7 | 240 | 1.6 | 1.6 | 0.00 | 0.08 | 0.08 | 73 | 1007.8 |
| 20260505201452 | 7 | 191 | 0.0 | 0.0 | 0.00 | 0.08 | 0.08 | 73 | 1007.8 |
| 20260505200949 | 7 | 212 | 0.0 | 0.0 | 0.00 | 0.08 | 0.08 | 74 | 1007.8 |
| 20260505200447 | 7 | 224 | 0.0 | 1.6 | 0.00 | 0.08 | 0.08 | 75 | 1007.9 |
| 20260505195943 | 7 | 211 | 1.6 | 1.6 | 0.00 | 0.08 | 0.08 | 76 | 1007.8 |
| 20260505195440 | 7 | 245 | 4.8 | 8.0 | 0.00 | 0.08 | 0.08 | 74 | 1008.0 |
| 20260505194937 | 7 | 203 | 0.0 | 1.6 | 0.00 | 0.08 | 0.08 | 76 | 1007.9 |
| 20260505194434 | 7 | 229 | 4.8 | 8.0 | 0.00 | 0.08 | 0.08 | 77 | 1007.9 |
| 20260505193934 | 8 | 236 | 0.0 | 1.6 | 0.00 | 0.08 | 0.08 | 77 | 1007.7 |
| 20260505193432 | 7 | 290 | 3.2 | 3.2 | 0.00 | 0.08 | 0.08 | 77 | 1007.8 |
| 20260505192930 | 7 | 231 | 1.6 | 1.6 | 0.00 | 0.08 | 0.08 | 79 | 1007.7 |
| 20260505192428 | 7 | 225 | 0.0 | 0.0 | 0.00 | 0.08 | 0.08 | 78 | 1007.8 |
| 20260505191925 | 7 | 238 | 1.6 | 4.8 | 0.00 | 0.08 | 0.08 | 78 | 1007.6 |
| 20260505191424 | 7 | 242 | 0.0 | 0.0 | 0.00 | 0.08 | 0.08 | 80 | 1007.6 |
| 20260505190920 | 7 | 227 | 0.0 | 0.0 | 0.00 | 0.08 | 0.08 | 80 | 1007.4 |
| 20260505190415 | 7 | 277 | 3.2 | 3.2 | 0.00 | 0.08 | 0.08 | 81 | 1007.3 |
| 20260505185911 | 7 | 207 | 0.0 | 0.0 | 0.00 | 0.08 | 0.08 | 84 | 1007.1 |
| 20260505185409 | 7 | 184 | 0.0 | 0.0 | 0.00 | 0.08 | 0.08 | 83 | 1007.3 |
| 20260505184904 | 7 | 217 | 0.0 | 0.0 | 0.00 | 0.08 | 0.08 | 82 | 1007.5 |
| 20260505184401 | 7 | 230 | 0.0 | 0.0 | 0.00 | 0.08 | 0.08 | 83 | 1007.2 |
| 20260505183858 | 7 | 187 | 0.0 | 1.6 | 0.00 | 0.08 | 0.08 | 85 | 1007.1 |
| 20260505183355 | 7 | 190 | 0.0 | 0.0 | 0.00 | 0.08 | 0.08 | 85 | 1007.2 |
| 20260505182852 | 7 | 71 | 1.6 | 3.2 | 0.18 | 0.08 | 0.08 | 85 | 1007.2 |
| 20260505182349 | 7 | 193 | 0.0 | 0.0 | 0.18 | 0.08 | 0.08 | 84 | 1007.3 |
| 20260505181845 | 7 | 16 | 1.6 | 3.2 | 0.13 | 0.05 | 0.05 | 83 | 1007.2 |
| 20260505181343 | 7 | 263 | 3.2 | 3.2 | 0.30 | 0.05 | 0.05 | 82 | 1007.0 |
| 20260505180839 | 7 | 358 | 0.0 | 1.6 | 0.18 | 0.03 | 0.03 | 80 | 1006.9 |
| 20260505180336 | 8 | 313 | 1.6 | 3.2 | 0.00 | 0.00 | 0.00 | 77 | 1007.1 |
| 20260505175832 | 8 | 38 | 3.2 | 4.8 | 0.00 | 0.00 | 0.00 | 75 | 1006.7 |
| 20260505175329 | 9 | 17 | 1.6 | 3.2 | 0.00 | 0.00 | 0.00 | 72 | 1006.7 |
| 20260505174825 | 9 | 74 | 0.0 | 1.6 | 0.00 | 0.00 | 0.00 | 68 | 1006.5 |
| 20260505174323 | 10 | 177 | 0.0 | 1.6 | 0.00 | 0.00 | 0.00 | 65 | 1006.4 |
| 20260505173819 | 10 | 28 | 4.8 | 4.8 | 0.00 | 0.00 | 0.00 | 60 | 1006.2 |
| 20260505173315 | 10 | 300 | 0.0 | 0.0 | 0.00 | 0.00 | 0.00 | 60 | 1006.2 |
| 20260505172813 | 10 | 323 | 1.6 | 1.6 | 0.00 | 0.00 | 0.00 | 58 | 1006.2 |
| 20260505172310 | 10 | 208 | 6.4 | 8.0 | 0.00 | 0.00 | 0.00 | 59 | 1005.9 |
| 20260505171804 | 10 | 277 | 1.6 | 1.6 | 0.00 | 0.00 | 0.00 | 57 | 1006.1 |
| 20260505171301 | 11 | 159 | 0.0 | 0.0 | 0.00 | 0.00 | 0.00 | 56 | 1006.2 |
| 20260505170758 | 11 | 21 | 3.2 | 3.2 | 0.00 | 0.00 | 0.00 | 55 | 1006.2 |
| 20260505170255 | 11 | 24 | 0.0 | 1.6 | 0.00 | 0.00 | 0.00 | 56 | 1006.2 |
| 20260505165755 | 11 | 355 | 3.2 | 3.2 | 0.00 | 0.00 | 0.00 | 55 | 1006.1 |
| 20260505165252 | 11 | 272 | 1.6 | 3.2 | 0.00 | 0.00 | 0.00 | 54 | 1006.0 |
| 20260505164748 | 11 | 126 | 0.0 | 0.0 | 0.00 | 0.00 | 0.00 | 55 | 1006.3 |
| 20260505164245 | 11 | 325 | 1.6 | 1.6 | 0.00 | 0.00 | 0.00 | 55 | 1006.0 |
| 20260505163743 | 11 | 157 | 1.6 | 1.6 | 0.00 | 0.00 | 0.00 | 56 | 1006.0 |
| 20260505163241 | 11 | 214 | 4.8 | 4.8 | 0.00 | 0.00 | 0.00 | 55 | 1005.8 |
| 20260505162739 | 11 | 111 | 0.0 | 1.6 | 0.00 | 0.00 | 0.00 | 55 | 1005.9 |
| 20260505162235 | 11 | 130 | 1.6 | 3.2 | 0.00 | 0.00 | 0.00 | 55 | 1005.8 |
| 20260505161732 | 11 | 332 | 4.8 | 8.0 | 0.00 | 0.00 | 0.00 | 56 | 1005.7 |
| 20260505161230 | 11 | 32 | 1.6 | 1.6 | 0.00 | 0.00 | 0.00 | 56 | 1005.8 |
| 20260505160727 | 11 | 19 | 1.6 | 3.2 | 0.00 | 0.00 | 0.00 | 56 | 1005.6 |
| 20260505160225 | 11 | 299 | 1.6 | 1.6 | 0.00 | 0.00 | 0.00 | 55 | 1005.7 |
| 20260505153204 | 11 | 226 | 3.2 | 3.2 | 0.00 | 0.00 | 0.00 | 56 | 1006.0 |
| 20260505152700 | 12 | 211 | 1.6 | 1.6 | 0.00 | 0.00 | 0.00 | 55 | 1005.8 |
| 20260505152156 | 12 | 4 | 6.4 | 11.3 | 0.00 | 0.00 | 0.00 | 56 | 1005.7 |
| 20260505151652 | 11 | 258 | 1.6 | 3.2 | 0.00 | 0.00 | 0.00 | 57 | 1005.6 |
| 20260505151149 | 11 | 33 | 4.8 | 8.0 | 0.00 | 0.00 | 0.00 | 56 | 1005.1 |
| 20260505150645 | 11 | 320 | 4.8 | 4.8 | 0.00 | 0.00 | 0.00 | 57 | 1005.1 |
| 20260505150143 | 11 | 216 | 4.8 | 8.0 | 0.00 | 0.00 | 0.00 | 57 | 1004.5 |
| 20260505140611 | 10 | 204 | 1.6 | 1.6 | 0.00 | 0.00 | 0.00 | 63 | 1003.5 |
| 20260505140108 | 10 | 106 | 3.2 | 3.2 | 0.00 | 0.00 | 0.00 | 63 | 1003.6 |
| 20260505125024 | 8 | 329 | 3.2 | 3.2 | 0.00 | 0.00 | 0.00 | 78 | 1003.3 |
| 20260505124521 | 8 | 10 | 3.2 | 4.8 | 0.00 | 0.00 | 0.00 | 78 | 1003.6 |
| 20260505124017 | 8 | 7 | 4.8 | 4.8 | 0.00 | 0.00 | 0.00 | 76 | 1003.2 |
| 20260505123514 | 8 | 358 | 4.8 | 4.8 | 0.00 | 0.00 | 0.00 | 79 | 1003.1 |
| 20260505123010 | 8 | 5 | 8.0 | 8.0 | 0.00 | 0.00 | 0.00 | 80 | 1003.0 |
| 20260505122507 | 8 | 3 | 3.2 | 3.2 | 0.00 | 0.00 | 0.00 | 79 | 1002.6 |
| 20260505122004 | 8 | 14 | 4.8 | 4.8 | 0.00 | 0.00 | 0.00 | 80 | 1002.5 |
| 20260505121501 | 8 | 331 | 4.8 | 4.8 | 0.00 | 0.00 | 0.00 | 82 | 1002.4 |
| 20260505120957 | 9 | 8 | 8.0 | 9.7 | 0.00 | 0.00 | 0.00 | 86 | 1002.3 |
| 20260505120453 | 10 | 310 | 1.6 | 3.2 | 0.00 | 0.00 | 0.00 | 86 | 1001.9 |
| 20260505115952 | 10 | 13 | 6.4 | 9.7 | 0.00 | 0.00 | 0.00 | 86 | 1002.2 |
| 20260505115449 | 10 | 11 | 4.8 | 8.0 | 0.00 | 0.00 | 0.00 | 85 | 1002.1 |
| 20260505114947 | 11 | 296 | 1.6 | 3.2 | 0.00 | 0.00 | 0.00 | 85 | 1002.0 |
| 20260505114443 | 11 | 351 | 4.8 | 4.8 | 0.00 | 0.00 | 0.00 | 85 | 1001.5 |
| 20260505113940 | 11 | 192 | 0.0 | 0.0 | 0.00 | 0.00 | 0.00 | 84 | 1001.3 |
| 20260505113436 | 11 | 320 | 1.6 | 1.6 | 0.00 | 0.00 | 0.00 | 84 | 1001.3 |
| 20260505112932 | 11 | 221 | 0.0 | 0.0 | 0.00 | 0.00 | 0.00 | 83 | 1001.0 |
| 20260505112430 | 12 | 242 | 3.2 | 3.2 | 0.00 | 0.00 | 0.00 | 82 | 1001.0 |
| 20260505111926 | 12 | 255 | 1.6 | 3.2 | 0.00 | 0.00 | 0.00 | 82 | 1001.1 |
| 20260505111421 | 12 | 286 | 4.8 | 8.0 | 0.00 | 0.00 | 0.00 | 81 | 1001.1 |
| 20260505110917 | 12 | 246 | 8.0 | 9.7 | 0.00 | 0.00 | 0.00 | 83 | 1001.2 |
| 20260505110414 | 12 | 242 | 4.8 | 8.0 | 0.00 | 0.00 | 0.00 | 83 | 1001.0 |
| 20260505101845 | 13 | 249 | 9.7 | 17.7 | 0.00 | 0.00 | 0.00 | 81 | 1000.1 |
| 20260505101340 | 13 | 250 | 8.0 | 8.0 | 0.00 | 0.00 | 0.00 | 81 | 1000.2 |
| 20260505100836 | 13 | 238 | 8.0 | 9.7 | 0.00 | 0.00 | 0.00 | 81 | 1000.1 |
| 20260505100333 | 13 | 243 | 9.7 | 11.3 | 0.00 | 0.00 | 0.00 | 80 | 999.7 |
| 20260505095828 | 13 | 235 | 4.8 | 8.0 | 0.00 | 0.00 | 0.00 | 80 | 999.7 |
| 20260505095326 | 13 | 212 | 8.0 | 11.3 | 0.00 | 0.00 | 0.00 | 80 | 999.6 |
| 20260505094822 | 13 | 224 | 12.9 | 16.1 | 0.00 | 0.00 | 0.00 | 80 | 999.6 |
| 20260505094319 | 13 | 228 | 11.3 | 12.9 | 0.00 | 0.00 | 0.00 | 80 | 999.4 |
| 20260505093814 | 13 | 245 | 11.3 | 16.1 | 0.00 | 0.00 | 0.00 | 80 | 999.7 |
| 20260505093312 | 13 | 262 | 9.7 | 11.3 | 0.00 | 0.00 | 0.00 | 80 | 999.6 |
| 20260505092808 | 13 | 185 | 9.7 | 9.7 | 0.00 | 0.00 | 0.00 | 80 | 999.4 |
| 20260505092308 | 13 | 223 | 8.0 | 9.7 | 0.00 | 0.00 | 0.00 | 80 | 999.4 |
| 20260505091804 | 13 | 220 | 8.0 | 11.3 | 0.00 | 0.00 | 0.00 | 80 | 999.2 |
| 20260505091303 | 13 | 194 | 11.3 | 12.9 | 0.00 | 0.00 | 0.00 | 80 | 999.2 |
| 20260505090800 | 13 | 244 | 6.4 | 8.0 | 0.00 | 0.00 | 0.00 | 79 | 999.2 |
| 20260505090258 | 13 | 240 | 11.3 | 12.9 | 0.00 | 0.00 | 0.00 | 79 | 999.1 |
| 20260505085755 | 13 | 220 | 11.3 | 16.1 | 0.00 | 0.00 | 0.00 | 80 | 999.1 |
| 20260505085253 | 13 | 194 | 8.0 | 11.3 | 0.00 | 0.00 | 0.00 | 80 | 999.3 |
| 20260505084750 | 13 | 221 | 14.5 | 14.5 | 0.00 | 0.00 | 0.00 | 80 | 999.3 |
| 20260505084249 | 13 | 211 | 14.5 | 17.7 | 0.00 | 0.00 | 0.00 | 80 | 998.9 |
| 20260505083746 | 13 | 207 | 11.3 | 11.3 | 0.00 | 0.00 | 0.00 | 80 | 999.0 |
| 20260505083242 | 13 | 197 | 8.0 | 11.3 | 0.00 | 0.00 | 0.00 | 80 | 998.9 |
| 20260505082739 | 13 | 262 | 6.4 | 11.3 | 0.00 | 0.00 | 0.00 | 80 | 999.0 |
| 20260505082236 | 13 | 184 | 4.8 | 4.8 | 0.00 | 0.00 | 0.00 | 80 | 998.9 |
| 20260505081732 | 13 | 216 | 9.7 | 11.3 | 0.00 | 0.00 | 0.00 | 80 | 999.0 |
| 20260505081229 | 14 | 215 | 8.0 | 9.7 | 0.00 | 0.00 | 0.00 | 79 | 998.9 |
| 20260505080726 | 13 | 204 | 11.3 | 14.5 | 0.00 | 0.00 | 0.00 | 80 | 999.1 |
| 20260505080221 | 13 | 216 | 9.7 | 12.9 | 0.00 | 0.00 | 0.00 | 80 | 999.2 |
| 20260505075717 | 14 | 209 | 8.0 | 9.7 | 0.00 | 0.00 | 0.00 | 78 | 999.4 |
| 20260505075215 | 14 | 218 | 8.0 | 11.3 | 0.00 | 0.00 | 0.00 | 77 | 999.4 |
| 20260505074712 | 14 | 201 | 16.1 | 20.9 | 0.00 | 0.00 | 0.00 | 76 | 999.5 |
| 20260505074209 | 14 | 216 | 8.0 | 11.3 | 0.00 | 0.00 | 0.00 | 76 | 999.6 |
| 20260505073707 | 14 | 221 | 11.3 | 14.5 | 0.00 | 0.00 | 0.00 | 76 | 999.4 |
| 20260505073205 | 14 | 245 | 8.0 | 9.7 | 0.00 | 0.00 | 0.00 | 76 | 999.4 |
| 20260505072700 | 14 | 219 | 8.0 | 12.9 | 0.00 | 0.00 | 0.00 | 75 | 999.5 |
| 20260505072156 | 15 | 293 | 8.0 | 9.7 | 0.00 | 0.00 | 0.00 | 75 | 999.1 |
| 20260505071652 | 15 | 243 | 8.0 | 9.7 | 0.00 | 0.00 | 0.00 | 74 | 999.3 |
| 20260505071150 | 15 | 226 | 11.3 | 16.1 | 0.00 | 0.00 | 0.00 | 73 | 999.4 |
| 20260505070647 | 15 | 237 | 11.3 | 12.9 | 0.00 | 0.00 | 0.00 | 73 | 999.5 |
| 20260505070143 | 15 | 200 | 12.9 | 16.1 | 0.00 | 0.00 | 0.00 | 73 | 999.4 |
| 20260505065639 | 15 | 196 | 9.7 | 11.3 | 0.00 | 0.00 | 0.00 | 72 | 999.2 |
| 20260505065136 | 15 | 235 | 14.5 | 20.9 | 0.00 | 0.00 | 0.00 | 72 | 999.8 |
| 20260505064633 | 15 | 206 | 17.7 | 20.9 | 0.00 | 0.00 | 0.00 | 72 | 999.6 |
| 20260505064131 | 15 | 206 | 14.5 | 17.7 | 0.00 | 0.00 | 0.00 | 72 | 999.6 |
| 20260505063629 | 15 | 214 | 20.9 | 24.1 | 0.00 | 0.00 | 0.00 | 72 | 999.6 |
| 20260505063124 | 15 | 255 | 12.9 | 16.1 | 0.00 | 0.00 | 0.00 | 72 | 999.7 |
| 20260505062621 | 15 | 231 | 11.3 | 12.9 | 0.00 | 0.00 | 0.00 | 73 | 999.7 |
| 20260505062118 | 15 | 181 | 11.3 | 14.5 | 0.00 | 0.00 | 0.00 | 73 | 999.8 |
| 20260505061615 | 15 | 226 | 14.5 | 14.5 | 0.00 | 0.00 | 0.00 | 73 | 999.9 |
| 20260505061113 | 15 | 202 | 17.7 | 24.1 | 0.00 | 0.00 | 0.00 | 72 | 999.8 |
| 20260505060611 | 15 | 212 | 19.3 | 22.5 | 0.00 | 0.00 | 0.00 | 72 | 999.9 |
| 20260505060107 | 15 | 200 | 17.7 | 24.1 | 0.00 | 0.00 | 0.00 | 73 | 999.9 |
| 20260505055603 | 15 | 235 | 12.9 | 17.7 | 0.00 | 0.00 | 0.00 | 73 | 999.9 |
| 20260505055059 | 15 | 190 | 14.5 | 17.7 | 0.00 | 0.00 | 0.00 | 72 | 999.8 |
| 20260505054557 | 15 | 211 | 14.5 | 17.7 | 0.00 | 0.00 | 0.00 | 72 | 999.9 |
| 20260505054055 | 15 | 209 | 22.5 | 29.0 | 0.00 | 0.00 | 0.00 | 73 | 1000.1 |
| 20260505053551 | 15 | 193 | 16.1 | 17.7 | 0.00 | 0.00 | 0.00 | 72 | 1000.2 |
| 20260505053048 | 15 | 211 | 17.7 | 20.9 | 0.00 | 0.00 | 0.00 | 71 | 1000.4 |
| 20260505052545 | 15 | 204 | 14.5 | 17.7 | 0.00 | 0.00 | 0.00 | 71 | 1000.4 |
| 20260505052043 | 15 | 211 | 16.1 | 17.7 | 0.00 | 0.00 | 0.00 | 70 | 1000.4 |
| 20260505051539 | 15 | 214 | 14.5 | 17.7 | 0.00 | 0.00 | 0.00 | 70 | 1000.4 |
| 20260505051038 | 15 | 215 | 16.1 | 22.5 | 0.00 | 0.00 | 0.00 | 71 | 1000.2 |
| 20260505050535 | 15 | 218 | 17.7 | 24.1 | 0.00 | 0.00 | 0.00 | 71 | 1000.3 |
| 20260505041503 | 15 | 199 | 22.5 | 24.1 | 0.00 | 0.00 | 0.00 | 72 | 999.9 |
| 20260505041001 | 15 | 202 | 14.5 | 16.1 | 0.00 | 0.00 | 0.00 | 72 | 999.9 |
| 20260505040458 | 15 | 244 | 16.1 | 17.7 | 0.00 | 0.00 | 0.00 | 73 | 1000.1 |
| 20260505035954 | 15 | 222 | 17.7 | 20.9 | 0.00 | 0.03 | 0.03 | 72 | 1000.3 |
| 20260505035450 | 15 | 152 | 14.5 | 16.1 | 0.00 | 0.03 | 0.03 | 72 | 1000.4 |
| 20260505034948 | 15 | 199 | 14.5 | 16.1 | 0.00 | 0.03 | 0.03 | 71 | 1000.3 |
| 20260505034444 | 15 | 199 | 16.1 | 17.7 | 0.00 | 0.03 | 0.03 | 71 | 1000.2 |
| 20260505033941 | 15 | 210 | 17.7 | 20.9 | 0.00 | 0.03 | 0.03 | 71 | 1000.3 |
| 20260505033438 | 15 | 220 | 20.9 | 27.4 | 0.00 | 0.03 | 0.03 | 72 | 1000.6 |
| 20260505032936 | 15 | 230 | 14.5 | 17.7 | 0.00 | 0.03 | 0.03 | 71 | 1000.4 |
| 20260505032433 | 15 | 245 | 12.9 | 12.9 | 0.00 | 0.03 | 0.03 | 72 | 1000.5 |
| 20260505031929 | 15 | 223 | 16.1 | 22.5 | 0.00 | 0.03 | 0.03 | 73 | 1000.5 |
| 20260505031427 | 15 | 236 | 14.5 | 17.7 | 0.00 | 0.03 | 0.03 | 73 | 1000.7 |
| 20260505030924 | 15 | 231 | 11.3 | 14.5 | 0.00 | 0.03 | 0.03 | 73 | 1000.7 |
| 20260505030419 | 15 | 226 | 11.3 | 14.5 | 0.00 | 0.03 | 0.03 | 72 | 1000.7 |
| 20260505025915 | 15 | 220 | 14.5 | 16.1 | 0.00 | 0.03 | 0.03 | 71 | 1000.7 |
| 20260505025413 | 16 | 241 | 12.9 | 16.1 | 0.00 | 0.03 | 0.03 | 69 | 1000.8 |
| 20260505024911 | 16 | 219 | 16.1 | 17.7 | 0.00 | 0.03 | 0.03 | 68 | 1000.6 |
| 20260505024408 | 16 | 241 | 17.7 | 24.1 | 0.00 | 0.03 | 0.03 | 67 | 1000.9 |
| 20260505023905 | 16 | 222 | 24.1 | 33.8 | 0.00 | 0.03 | 0.03 | 67 | 1000.7 |
| 20260505023402 | 16 | 200 | 16.1 | 20.9 | 0.00 | 0.03 | 0.03 | 68 | 1000.8 |
| 20260505022859 | 15 | 185 | 20.9 | 25.7 | 0.00 | 0.03 | 0.03 | 68 | 1001.0 |
| 20260505022356 | 15 | 212 | 19.3 | 24.1 | 0.00 | 0.03 | 0.03 | 68 | 1000.9 |
| 20260505021854 | 16 | 214 | 12.9 | 14.5 | 0.00 | 0.03 | 0.03 | 67 | 1000.6 |
| 20260505021350 | 16 | 190 | 11.3 | 12.9 | 0.00 | 0.03 | 0.03 | 67 | 1000.7 |
| 20260505020846 | 16 | 231 | 12.9 | 16.1 | 0.00 | 0.03 | 0.03 | 67 | 1000.7 |
| 20260505020342 | 16 | 234 | 12.9 | 14.5 | 0.00 | 0.03 | 0.03 | 65 | 1000.7 |
| 20260505015839 | 16 | 207 | 19.3 | 25.7 | 0.00 | 0.03 | 0.03 | 65 | 1000.6 |